QPF
0.00 0.00 0.01 0.03 0.02 0.02 0.02 0.02 0.03 0.04 0.02 0.03 0.03 0.05 0.06 0.06 0.06 0.06 0.05 0.04 0.03 0.02 0.03 0.03 0.04 0.05 0.06 0.05 0.06 0.07 0.07 0.08 0.09 0.09 0.07 0.06 0.04 0.04 0.03 0.02 0.02 0.01 0.02
0.00 0.00 0.01 0.02 0.03 0.04 0.03 0.02 0.03 0.03 0.02 0.03 0.04 0.05 0.06 0.07 0.10 0.07 0.04 0.03 0.03 0.03 0.04 0.06 0.05 0.05 0.06 0.05 0.05 0.07 0.08 0.07 0.10 0.10 0.11 0.10 0.08 0.05 0.03 0.02 0.02 0.01 0.02
0.01 0.01 0.00 0.01 0.01 0.02 0.01 0.02 0.04 0.04 0.04 0.05 0.05 0.06 0.06 0.06 0.07 0.06 0.06 0.04 0.04 0.04 0.04 0.04 0.04 0.05 0.04 0.07 0.07 0.06 0.07 0.07 0.08 0.08 0.10 0.12 0.12 0.09 0.05 0.02 0.01 0.01 0.02
0.01 0.01 0.00 0.00 0.00 0.01 0.01 0.01 0.01 0.03 0.04 0.06 0.05 0.06 0.06 0.06 0.06 0.06 0.06 0.05 0.05 0.05 0.05 0.03 0.04 0.04 0.04 0.07 0.05 0.06 0.07 0.08 0.08 0.08 0.10 0.12 0.12 0.13 0.09 0.04 0.02 0.01 0.02
0.00 0.01 0.00 0.00 0.00 0.01 0.01 0.02 0.02 0.02 0.03 0.04 0.04 0.04 0.04 0.05 0.05 0.05 0.04 0.05 0.06 0.06 0.04 0.04 0.04 0.03 0.04 0.04 0.05 0.06 0.05 0.05 0.06 0.09 0.11 0.11 0.11 0.09 0.08 0.09 0.06 0.04 0.03
0.00 0.01 0.01 0.01 0.01 0.01 0.01 0.01 0.02 0.02 0.03 0.03 0.03 0.03 0.04 0.05 0.05 0.06 0.06 0.06 0.07 0.06 0.06 0.05 0.05 0.03 0.03 0.03 0.04 0.05 0.05 0.06 0.06 0.07 0.08 0.08 0.07 0.07 0.07 0.08 0.07 0.05 0.02
0.01 0.01 0.02 0.02 0.02 0.02 0.02 0.02 0.02 0.03 0.03 0.04 0.04 0.04 0.05 0.07 0.06 0.05 0.04 0.05 0.05 0.06 0.06 0.06 0.06 0.05 0.04 0.04 0.05 0.06 0.06 0.05 0.06 0.05 0.06 0.06 0.07 0.06 0.06 0.12 0.10 0.07 0.05
0.00 0.00 0.01 0.01 0.02 0.02 0.02 0.02 0.02 0.03 0.04 0.04 0.04 0.04 0.04 0.04 0.04 0.05 0.04 0.04 0.04 0.05 0.05 0.06 0.06 0.06 0.05 0.04 0.05 0.05 0.05 0.04 0.03 0.02 0.04 0.05 0.04 0.04 0.05 0.13 0.11 0.09 0.09
0.00 0.00 0.00 0.01 0.02 0.02 0.02 0.01 0.01 0.02 0.04 0.04 0.04 0.04 0.04 0.04 0.04 0.04 0.05 0.04 0.04 0.04 0.04 0.05 0.05 0.06 0.05 0.04 0.04 0.05 0.04 0.04 0.03 0.03 0.04 0.04 0.03 0.03 0.05 0.10 0.08 0.09 0.12
0.00 0.00 0.00 0.00 0.01 0.02 0.01 0.01 0.02 0.02 0.03 0.03 0.04 0.04 0.05 0.05 0.05 0.05 0.05 0.04 0.03 0.02 0.03 0.03 0.04 0.05 0.06 0.06 0.07 0.06 0.05 0.04 0.04 0.04 0.04 0.04 0.03 0.03 0.04 0.06 0.06 0.07 0.08
0.01 0.00 0.00 0.00 0.00 0.00 0.00 0.00 0.01 0.02 0.03 0.03 0.03 0.04 0.04 0.04 0.04 0.03 0.03 0.03 0.03 0.02 0.03 0.02 0.03 0.04 0.05 0.06 0.07 0.07 0.07 0.05 0.04 0.03 0.03 0.04 0.04 0.04 0.05 0.05 0.05 0.05 0.07
0.00 0.00 0.00 0.00 0.00 0.00 0.00 0.00 0.00 0.01 0.01 0.02 0.03 0.03 0.03 0.03 0.03 0.03 0.03 0.03 0.03 0.03 0.02 0.02 0.03 0.03 0.04 0.05 0.06 0.06 0.05 0.05 0.04 0.03 0.03 0.03 0.04 0.06 0.06 0.06 0.04 0.04 0.05
0.00 0.00 0.00 0.00 0.00 0.00 0.00 0.00 0.00 0.01 0.01 0.01 0.02 0.02 0.02 0.03 0.03 0.03 0.03 0.03 0.04 0.03 0.02 0.02 0.02 0.02 0.03 0.03 0.04 0.05 0.05 0.05 0.05 0.03 0.03 0.02 0.04 0.05 0.06 0.06 0.04 0.03 0.03
0.00 0.00 0.00 0.00 0.00 0.00 0.00 0.00 0.00 0.00 0.01 0.01 0.01 0.01 0.02 0.03 0.04 0.04 0.03 0.04 0.04 0.04 0.03 0.02 0.02 0.02 0.02 0.03 0.03 0.04 0.05 0.04 0.04 0.04 0.03 0.03 0.03 0.03 0.03 0.03 0.03 0.03 0.03
0.00 0.00 0.00 0.00 0.00 0.00 0.00 0.00 0.00 0.00 0.00 0.01 0.02 0.02 0.02 0.03 0.03 0.04 0.03 0.03 0.03 0.03 0.04 0.03 0.03 0.04 0.04 0.03 0.04 0.04 0.04 0.05 0.05 0.05 0.04 0.04 0.04 0.04 0.03 0.03 0.04 0.05 0.05
0.00 0.00 0.00 0.00 0.00 0.00 0.00 0.00 0.00 0.00 0.00 0.01 0.02 0.04 0.04 0.03 0.03 0.03 0.04 0.05 0.04 0.03 0.03 0.04 0.05 0.06 0.05 0.04 0.03 0.03 0.05 0.06 0.06 0.06 0.05 0.05 0.04 0.05 0.04 0.03 0.02 0.03 0.04
0.00 0.00 0.00 0.00 0.00 0.00 0.00 0.00 0.00 0.00 0.00 0.01 0.01 0.02 0.02 0.03 0.02 0.02 0.03 0.04 0.04 0.04 0.05 0.04 0.05 0.06 0.06 0.05 0.04 0.04 0.05 0.07 0.07 0.07 0.06 0.04 0.03 0.04 0.04 0.04 0.04 0.03 0.03
0.00 0.00 0.00 0.00 0.00 0.00 0.00 0.00 0.00 0.00 0.00 0.01 0.01 0.01 0.02 0.03 0.04 0.04 0.04 0.04 0.05 0.05 0.06 0.06 0.05 0.06 0.06 0.06 0.04 0.04 0.06 0.07 0.06 0.06 0.07 0.06 0.04 0.04 0.06 0.05 0.04 0.03 0.03
0.01 0.01 0.00 0.00 0.00 0.00 0.00 0.00 0.00 0.00 0.01 0.01 0.01 0.01 0.02 0.03 0.05 0.04 0.04 0.04 0.05 0.05 0.05 0.06 0.06 0.06 0.06 0.06 0.04 0.04 0.06 0.06 0.05 0.06 0.07 0.06 0.05 0.05 0.06 0.06 0.06 0.05 0.04
0.02 0.03 0.00 0.00 0.00 0.00 0.00 0.00 0.00 0.01 0.01 0.01 0.01 0.01 0.02 0.03 0.03 0.03 0.04 0.06 0.05 0.05 0.06 0.06 0.07 0.07 0.05 0.05 0.04 0.05 0.05 0.05 0.05 0.08 0.09 0.07 0.04 0.04 0.04 0.05 0.06 0.06 0.06
0.00 0.00 0.00 0.00 0.00 0.00 0.00 0.00 0.01 0.01 0.01 0.01 0.02 0.02 0.02 0.02 0.03 0.03 0.04 0.05 0.05 0.04 0.05 0.06 0.09 0.09 0.07 0.08 0.07 0.05 0.04 0.05 0.06 0.06 0.06 0.06 0.05 0.04 0.04 0.04 0.05 0.04 0.06
0.00 0.00 0.00 0.00 0.00 0.00 0.00 0.01 0.01 0.01 0.01 0.01 0.02 0.03 0.03 0.03 0.04 0.04 0.04 0.04 0.04 0.04 0.06 0.08 0.10 0.10 0.09 0.07 0.06 0.06 0.05 0.07 0.09 0.07 0.07 0.07 0.05 0.04 0.04 0.03 0.03 0.04 0.05
0.01 0.01 0.01 0.00 0.00 0.00 0.01 0.02 0.01 0.01 0.01 0.02 0.02 0.03 0.04 0.05 0.06 0.05 0.05 0.06 0.06 0.05 0.04 0.05 0.06 0.06 0.05 0.06 0.08 0.07 0.06 0.06 0.07 0.08 0.09 0.09 0.06 0.05 0.04 0.04 0.04 0.05 0.05
0.01 0.01 0.01 0.01 0.01 0.01 0.01 0.02 0.02 0.02 0.02 0.02 0.03 0.03 0.04 0.05 0.06 0.07 0.05 0.05 0.05 0.04 0.04 0.03 0.03 0.03 0.04 0.05 0.06 0.07 0.06 0.06 0.06 0.07 0.07 0.07 0.07 0.07 0.05 0.04 0.04 0.04 0.03
0.01 0.02 0.02 0.03 0.02 0.02 0.02 0.03 0.03 0.03 0.02 0.02 0.02 0.03 0.03 0.04 0.05 0.06 0.05 0.04 0.05 0.04 0.04 0.04 0.03 0.03 0.03 0.03 0.04 0.06 0.06 0.05 0.06 0.06 0.06 0.06 0.08 0.09 0.08 0.05 0.05 0.04 0.04
0.01 0.01 0.02 0.03 0.02 0.02 0.02 0.02 0.02 0.02 0.02 0.02 0.02 0.03 0.03 0.04 0.06 0.07 0.06 0.06 0.06 0.07 0.05 0.04 0.03 0.03 0.02 0.02 0.02 0.03 0.03 0.04 0.06 0.07 0.08 0.08 0.09 0.09 0.09 0.09 0.09 0.08 0.06
MSLP
1007.39 1007.48 1007.56 1007.65 1007.76 1007.91 1008.11 1008.39 1008.73 1009.11 1009.49 1009.82 1010.05 1010.17 1010.16 1010.04 1009.83 1009.60 1009.39 1009.23 1009.18 1009.22 1009.37 1009.59 1009.85 1010.11 1010.34 1010.52 1010.61 1010.62 1010.54 1010.38 1010.15 1009.84 1009.48 1009.07 1008.62 1008.17 1007.72 1007.31 1006.97 1006.72 1006.58
1006.82 1006.95 1007.08 1007.20 1007.32 1007.47 1007.66 1007.92 1008.25 1008.64 1009.04 1009.42 1009.70 1009.87 1009.89 1009.76 1009.53 1009.25 1008.98 1008.76 1008.66 1008.69 1008.85 1009.12 1009.45 1009.79 1010.11 1010.36 1010.53 1010.59 1010.55 1010.42 1010.21 1009.94 1009.61 1009.23 1008.82 1008.38 1007.93 1007.49 1007.09 1006.75 1006.50
1006.10 1006.28 1006.47 1006.63 1006.78 1006.94 1007.12 1007.37 1007.70 1008.10 1008.53 1008.95 1009.30 1009.52 1009.59 1009.49 1009.27 1008.97 1008.65 1008.39 1008.25 1008.25 1008.40 1008.68 1009.05 1009.45 1009.83 1010.15 1010.37 1010.48 1010.49 1010.41 1010.24 1010.01 1009.74 1009.41 1009.05 1008.65 1008.22 1007.78 1007.34 1006.94 1006.59
1005.29 1005.52 1005.78 1006.01 1006.21 1006.39 1006.59 1006.83 1007.16 1007.57 1008.03 1008.49 1008.89 1009.18 1009.31 1009.27 1009.08 1008.78 1008.46 1008.17 1007.98 1007.94 1008.06 1008.33 1008.70 1009.11 1009.52 1009.87 1010.14 1010.29 1010.34 1010.30 1010.18 1010.01 1009.80 1009.54 1009.24 1008.90 1008.52 1008.09 1007.65 1007.20 1006.77
1004.45 1004.77 1005.12 1005.44 1005.71 1005.94 1006.16 1006.41 1006.74 1007.14 1007.61 1008.10 1008.56 1008.91 1009.11 1009.14 1009.00 1008.74 1008.42 1008.12 1007.90 1007.82 1007.89 1008.11 1008.45 1008.84 1009.24 1009.59 1009.86 1010.04 1010.11 1010.10 1010.03 1009.91 1009.75 1009.56 1009.33 1009.05 1008.72 1008.33 1007.89 1007.41 1006.92
1003.72 1004.14 1004.61 1005.04 1005.40 1005.69 1005.95 1006.21 1006.52 1006.91 1007.38 1007.88 1008.36 1008.76 1009.03 1009.12 1009.05 1008.84 1008.55 1008.26 1008.03 1007.91 1007.93 1008.09 1008.36 1008.70 1009.04 1009.36 1009.60 1009.76 1009.83 1009.83 1009.78 1009.69 1009.58 1009.44 1009.27 1009.05 1008.77 1008.41 1007.99 1007.51 1006.98
1003.19 1003.74 1004.34 1004.90 1005.36 1005.73 1006.02 1006.29 1006.59 1006.95 1007.38 1007.86 1008.35 1008.77 1009.08 1009.24 1009.24 1009.09 1008.86 1008.59 1008.36 1008.22 1008.19 1008.29 1008.48 1008.74 1009.01 1009.25 1009.43 1009.54 1009.58 1009.56 1009.50 1009.42 1009.32 1009.21 1009.08 1008.90 1008.66 1008.35 1007.95 1007.48 1006.94
1002.97 1003.66 1004.39 1005.08 1005.64 1006.08 1006.41 1006.68 1006.95 1007.27 1007.65 1008.09 1008.54 1008.96 1009.29 1009.50 1009.56 1009.49 1009.32 1009.11 1008.91 1008.76 1008.71 1008.74 1008.86 1009.03 1009.20 1009.34 1009.44 1009.47 1009.45 1009.38 1009.28 1009.18 1009.07 1008.97 1008.85 1008.70 1008.48 1008.20 1007.82 1007.37 1006.84
1003.09 1003.91 1004.77 1005.56 1006.22 1006.71 1007.08 1007.34 1007.59 1007.85 1008.16 1008.54 1008.94 1009.33 1009.66 1009.90 1010.01 1010.01 1009.92 1009.78 1009.63 1009.51 1009.45 1009.45 1009.50 1009.58 1009.66 1009.70 1009.70 1009.64 1009.53 1009.39 1009.23 1009.08 1008.95 1008.82 1008.69 1008.54 1008.34 1008.07 1007.72 1007.28 1006.76
1003.56 1004.48 1005.42 1006.29 1007.01 1007.55 1007.94 1008.21 1008.42 1008.63 1008.88 1009.18 1009.52 1009.86 1010.18 1010.42 1010.58 1010.64 1010.63 1010.56 1010.48 1010.41 1010.37 1010.36 1010.38 1010.39 1010.38 1010.33 1010.23 1010.08 1009.88 1009.66 1009.44 1009.24 1009.06 1008.90 1008.74 1008.58 1008.37 1008.10 1007.75 1007.33 1006.83
1004.29 1005.27 1006.26 1007.16 1007.91 1008.47 1008.87 1009.15 1009.35 1009.53 1009.73 1009.98 1010.25 1010.54 1010.83 1011.06 1011.24 1011.35 1011.41 1011.43 1011.42 1011.42 1011.42 1011.42 1011.42 1011.40 1011.33 1011.21 1011.03 1010.80 1010.53 1010.25 1009.97 1009.71 1009.48 1009.28 1009.10 1008.90 1008.67 1008.39 1008.04 1007.62 1007.13
1005.17 1006.15 1007.13 1008.02 1008.76 1009.34 1009.75 1010.05 1010.26 1010.45 1010.63 1010.84 1011.08 1011.33 1011.58 1011.80 1011.98 1012.12 1012.23 1012.31 1012.37 1012.43 1012.48 1012.52 1012.53 1012.50 1012.40 1012.24 1012.02 1011.74 1011.42 1011.09 1010.77 1010.47 1010.21 1009.97 1009.75 1009.52 1009.26 1008.96 1008.59 1008.16 1007.68
1006.08 1007.01 1007.93 1008.77 1009.48 1010.05 1010.48 1010.82 1011.08 1011.30 1011.51 1011.73 1011.96 1012.18 1012.40 1012.59 1012.76 1012.91 1013.04 1013.16 1013.27 1013.38 1013.48 1013.56 1013.59 1013.57 1013.47 1013.30 1013.06 1012.77 1012.43 1012.09 1011.75 1011.44 1011.16 1010.90 1010.64 1010.39 1010.10 1009.76 1009.37 1008.92 1008.43
1006.91 1007.76 1008.58 1009.33 1009.99 1010.55 1011.02 1011.41 1011.74 1012.04 1012.33 1012.59 1012.83 1013.05 1013.24 1013.41 1013.55 1013.68 1013.80 1013.93 1014.07 1014.21 1014.34 1014.45 1014.51 1014.51 1014.43 1014.28 1014.05 1013.77 1013.45 1013.11 1012.78 1012.47 1012.19 1011.92 1011.65 1011.37 1011.05 1010.68 1010.27 1009.80 1009.29
1007.58 1008.33 1009.04 1009.70 1010.30 1010.84 1011.35 1011.81 1012.25 1012.66 1013.04 1013.38 1013.66 1013.90 1014.08 1014.21 1014.31 1014.40 1014.49 1014.60 1014.73 1014.87 1015.02 1015.15 1015.23 1015.26 1015.21 1015.08 1014.89 1014.63 1014.34 1014.04 1013.73 1013.44 1013.16 1012.89 1012.62 1012.32 1011.98 1011.59 1011.15 1010.67 1010.15
1008.07 1008.72 1009.32 1009.89 1010.44 1010.98 1011.53 1012.08 1012.63 1013.16 1013.64 1014.07 1014.42 1014.67 1014.85 1014.96 1015.01 1015.05 1015.10 1015.16 1015.26 1015.39 1015.53 1015.66 1015.76 1015.81 1015.78 1015.69 1015.53 1015.31 1015.05 1014.78 1014.51 1014.24 1013.97 1013.71 1013.43 1013.12 1012.77 1012.37 1011.91 1011.42 1010.90
1008.38 1008.95 1009.48 1009.98 1010.50 1011.04 1011.63 1012.27 1012.92 1013.56 1014.15 1014.66 1015.07 1015.36 1015.53 1015.61 1015.63 1015.62 1015.61 1015.63 1015.70 1015.79 1015.92 1016.05 1016.15 1016.21 1016.21 1016.14 1016.00 1015.81 1015.58 1015.33 1015.07 1014.82 1014.56 1014.30 1014.02 1013.70 1013.35 1012.94 1012.50 1012.01 1011.50
1008.54 1009.09 1009.58 1010.05 1010.55 1011.11 1011.74 1012.43 1013.16 1013.89 1014.56 1015.14 1015.60 1015.91 1016.10 1016.16 1016.16 1016.11 1016.07 1016.06 1016.09 1016.17 1016.28 1016.40 1016.51 1016.57 1016.58 1016.51 1016.38 1016.20 1015.98 1015.73 1015.47 1015.21 1014.95 1014.68 1014.39 1014.07 1013.72 1013.33 1012.90 1012.44 1011.96
1008.62 1009.19 1009.68 1010.15 1010.66 1011.24 1011.90 1012.63 1013.41 1014.18 1014.91 1015.52 1016.01 1016.34 1016.53 1016.60 1016.59 1016.54 1016.50 1016.48 1016.51 1016.59 1016.70 1016.83 1016.93 1016.99 1016.99 1016.92 1016.78 1016.58 1016.34 1016.07 1015.79 1015.51 1015.22 1014.93 1014.63 1014.31 1013.96 1013.58 1013.18 1012.75 1012.32
1008.66 1009.29 1009.83 1010.34 1010.87 1011.47 1012.14 1012.89 1013.68 1014.46 1015.18 1015.81 1016.30 1016.64 1016.85 1016.94 1016.95 1016.93 1016.92 1016.93 1017.00 1017.10 1017.23 1017.37 1017.48 1017.54 1017.53 1017.44 1017.27 1017.04 1016.76 1016.45 1016.13 1015.80 1015.48 1015.16 1014.83 1014.50 1014.15 1013.79 1013.42 1013.04 1012.65
1008.71 1009.42 1010.04 1010.61 1011.18 1011.80 1012.48 1013.21 1013.97 1014.72 1015.42 1016.02 1016.50 1016.85 1017.07 1017.20 1017.26 1017.30 1017.35 1017.43 1017.56 1017.72 1017.90 1018.06 1018.18 1018.24 1018.22 1018.10 1017.90 1017.62 1017.29 1016.92 1016.54 1016.17 1015.79 1015.43 1015.08 1014.74 1014.39 1014.04 1013.69 1013.34 1013.00
1008.79 1009.62 1010.32 1010.96 1011.58 1012.21 1012.88 1013.58 1014.29 1014.98 1015.62 1016.18 1016.63 1016.98 1017.22 1017.40 1017.53 1017.65 1017.79 1017.97 1018.18 1018.41 1018.64 1018.84 1018.98 1019.04 1019.00 1018.86 1018.62 1018.29 1017.91 1017.48 1017.05 1016.62 1016.20 1015.80 1015.42 1015.05 1014.70 1014.35 1014.02 1013.69 1013.36
1008.95 1009.87 1010.66 1011.37 1012.03 1012.68 1013.33 1013.98 1014.63 1015.25 1015.82 1016.32 1016.74 1017.07 1017.34 1017.57 1017.78 1017.99 1018.23 1018.50 1018.80 1019.10 1019.39 1019.63 1019.79 1019.85 1019.80 1019.63 1019.35 1018.98 1018.55 1018.09 1017.61 1017.13 1016.67 1016.24 1015.83 1015.44 1015.07 1014.72 1014.38 1014.05 1013.72
1009.20 1010.19 1011.06 1011.82 1012.52 1013.17 1013.80 1014.41 1014.99 1015.53 1016.03 1016.47 1016.85 1017.18 1017.47 1017.74 1018.01 1018.31 1018.63 1018.99 1019.37 1019.73 1020.07 1020.34 1020.51 1020.56 1020.50 1020.30 1020.00 1019.61 1019.15 1018.65 1018.14 1017.64 1017.15 1016.70 1016.27 1015.86 1015.47 1015.10 1014.73 1014.37 1014.02
1009.55 1010.59 1011.50 1012.30 1013.02 1013.68 1014.28 1014.85 1015.37 1015.84 1016.27 1016.66 1017.00 1017.32 1017.62 1017.92 1018.25 1018.61 1019.00 1019.41 1019.83 1020.24 1020.59 1020.87 1021.04 1021.09 1021.01 1020.80 1020.49 1020.08 1019.62 1019.11 1018.59 1018.08 1017.59 1017.12 1016.67 1016.24 1015.82 1015.42 1015.02 1014.62 1014.22
1010.01 1011.06 1011.99 1012.81 1013.54 1014.19 1014.77 1015.30 1015.77 1016.19 1016.56 1016.91 1017.22 1017.52 1017.82 1018.14 1018.50 1018.88 1019.30 1019.74 1020.18 1020.58 1020.93 1021.19 1021.35 1021.38 1021.29 1021.08 1020.76 1020.37 1019.91 1019.42 1018.92 1018.42 1017.92 1017.45 1016.98 1016.53 1016.09 1015.64 1015.20 1014.75 1014.30
Thickness
5837 5836 5833 5830 5825 5819 5814 5810 5806 5804 5803 5800 5797 5794 5793 5793 5793 5793 5792 5790 5788 5787 5785 5783 5782 5781 5778 5776 5776 5773 5771 5771 5772 5768 5766 5769 5773 5773 5773 5773 5772 5771 5771
5836 5834 5832 5830 5825 5820 5815 5812 5808 5805 5803 5801 5799 5797 5795 5794 5793 5792 5791 5790 5788 5787 5786 5782 5781 5780 5778 5775 5774 5772 5768 5769 5771 5765 5759 5755 5759 5765 5772 5770 5770 5770 5770
5837 5834 5832 5830 5827 5822 5818 5815 5811 5808 5805 5803 5800 5798 5795 5793 5791 5789 5789 5790 5788 5786 5784 5782 5780 5779 5777 5774 5773 5771 5768 5764 5767 5768 5760 5751 5747 5754 5762 5766 5768 5768 5767
5843 5837 5834 5831 5829 5826 5823 5818 5813 5809 5807 5804 5799 5794 5790 5787 5788 5788 5788 5788 5787 5785 5783 5781 5779 5777 5776 5773 5772 5771 5769 5766 5762 5764 5765 5762 5758 5750 5748 5757 5763 5764 5764
5847 5841 5838 5835 5833 5830 5826 5820 5815 5810 5807 5804 5800 5795 5792 5790 5790 5789 5787 5786 5786 5784 5783 5781 5778 5776 5774 5772 5770 5769 5767 5765 5762 5761 5761 5759 5758 5756 5748 5745 5751 5756 5760
5850 5845 5842 5838 5834 5831 5826 5821 5814 5809 5807 5803 5800 5796 5792 5789 5787 5785 5783 5783 5783 5782 5781 5779 5777 5775 5772 5771 5769 5767 5765 5764 5762 5761 5759 5756 5753 5751 5750 5745 5745 5747 5753
5851 5845 5840 5835 5831 5828 5824 5820 5813 5808 5806 5803 5799 5796 5792 5789 5786 5784 5782 5781 5780 5779 5779 5778 5775 5773 5771 5770 5768 5765 5763 5762 5760 5758 5757 5757 5756 5756 5752 5747 5745 5744 5749
5851 5846 5842 5837 5832 5828 5824 5819 5812 5807 5805 5801 5798 5795 5792 5789 5787 5785 5783 5781 5780 5779 5778 5776 5773 5771 5770 5768 5766 5763 5762 5760 5758 5758 5756 5755 5756 5755 5753 5748 5743 5739 5740
5848 5845 5842 5837 5831 5826 5823 5819 5813 5807 5804 5801 5796 5793 5790 5788 5786 5785 5783 5780 5779 5778 5776 5774 5771 5769 5767 5765 5763 5760 5759 5758 5756 5755 5754 5752 5753 5754 5753 5751 5747 5738 5732
5845 5842 5840 5836 5831 5826 5823 5820 5814 5807 5804 5800 5795 5791 5788 5786 5784 5782 5779 5778 5777 5775 5773 5771 5768 5766 5764 5762 5760 5757 5757 5755 5753 5753 5751 5749 5749 5750 5750 5749 5746 5743 5736
5841 5839 5836 5833 5830 5826 5822 5817 5812 5806 5802 5798 5794 5790 5787 5784 5782 5779 5777 5775 5774 5772 5769 5767 5764 5762 5760 5758 5756 5754 5753 5750 5749 5748 5747 5745 5745 5743 5744 5743 5742 5740 5737
5837 5835 5832 5828 5825 5820 5816 5812 5808 5804 5800 5796 5792 5788 5784 5782 5778 5776 5774 5772 5770 5768 5766 5764 5761 5759 5757 5755 5752 5749 5748 5746 5744 5743 5742 5740 5740 5737 5736 5736 5734 5733 5733
5831 5828 5825 5821 5817 5813 5810 5807 5803 5800 5797 5793 5788 5784 5780 5777 5775 5773 5771 5769 5766 5764 5762 5760 5757 5755 5753 5751 5748 5746 5744 5742 5740 5739 5736 5735 5733 5730 5730 5729 5727 5726 5727
5823 5821 5817 5813 5810 5807 5804 5801 5799 5796 5793 5788 5784 5779 5776 5774 5772 5769 5767 5764 5762 5759 5757 5755 5753 5751 5749 5747 5744 5742 5739 5738 5736 5734 5732 5730 5727 5725 5724 5723 5721 5720 5718
5815 5813 5809 5806 5803 5800 5798 5795 5793 5790 5787 5782 5778 5775 5772 5770 5767 5764 5762 5760 5757 5755 5752 5749 5748 5746 5744 5742 5739 5736 5735 5732 5730 5728 5727 5725 5722 5720 5718 5717 5715 5713 5710
5809 5807 5804 5801 5797 5794 5792 5789 5786 5784 5781 5776 5772 5770 5767 5764 5761 5758 5756 5753 5751 5748 5746 5743 5741 5740 5738 5736 5733 5731 5729 5727 5724 5722 5720 5719 5716 5714 5712 5710 5709 5706 5703
5805 5802 5799 5796 5793 5791 5787 5783 5781 5778 5774 5770 5767 5764 5760 5757 5754 5753 5749 5746 5743 5742 5739 5737 5735 5732 5730 5728 5726 5724 5722 5721 5719 5717 5714 5714 5712 5708 5706 5704 5702 5700 5699
5801 5798 5796 5793 5790 5788 5783 5779 5776 5772 5767 5763 5760 5757 5754 5750 5748 5745 5741 5739 5736 5734 5732 5730 5729 5726 5723 5721 5718 5715 5714 5714 5713 5711 5709 5706 5703 5701 5698 5697 5696 5695 5694
5797 5794 5793 5790 5786 5782 5778 5773 5768 5764 5760 5756 5753 5751 5748 5744 5740 5737 5735 5733 5730 5727 5726 5724 5722 5719 5716 5713 5711 5708 5707 5707 5706 5705 5703 5700 5697 5694 5691 5690 5689 5688 5687
5793 5788 5787 5785 5778 5775 5772 5765 5760 5756 5752 5750 5747 5745 5742 5738 5735 5732 5729 5727 5724 5721 5720 5718 5716 5713 5710 5706 5704 5700 5700 5699 5698 5697 5696 5693 5691 5687 5685 5683 5681 5678 5678
5789 5786 5782 5777 5772 5769 5764 5756 5753 5749 5747 5745 5742 5738 5736 5732 5730 5726 5724 5721 5718 5715 5712 5711 5709 5707 5704 5700 5697 5694 5693 5692 5691 5690 5689 5687 5684 5681 5678 5676 5674 5672 5671
5781 5778 5772 5769 5766 5762 5756 5748 5744 5744 5742 5738 5734 5731 5728 5726 5724 5719 5716 5714 5710 5707 5704 5702 5700 5700 5697 5693 5691 5688 5685 5684 5682 5682 5681 5680 5676 5673 5671 5669 5668 5667 5665
5772 5769 5763 5759 5757 5754 5749 5741 5739 5737 5734 5729 5726 5723 5721 5718 5716 5712 5709 5706 5703 5700 5698 5696 5693 5692 5690 5687 5684 5681 5678 5677 5675 5675 5674 5670 5668 5666 5664 5663 5661 5659 5657
5762 5760 5755 5750 5747 5745 5742 5736 5733 5730 5725 5721 5718 5716 5713 5711 5709 5706 5703 5699 5696 5693 5691 5689 5687 5686 5683 5680 5676 5673 5671 5669 5667 5666 5664 5662 5660 5658 5658 5657 5655 5653 5652
5752 5750 5745 5741 5738 5736 5733 5730 5727 5722 5717 5713 5710 5708 5706 5704 5701 5698 5695 5693 5689 5687 5684 5682 5680 5677 5674 5670 5666 5663 5662 5661 5659 5657 5656 5654 5653 5652 5651 5650 5650 5649 5646
5742 5740 5736 5732 5729 5727 5724 5722 5720 5715 5710 5705 5702 5702 5700 5697 5695 5690 5686 5683 5681 5679 5676 5674 5672 5669 5665 5662 5659 5656 5655 5653 5651 5649 5649 5648 5647 5646 5645 5644 5642 5641 5640